sat.trackr.live / text

‹ back to catalog

IRIDIUM 110

NORAD 43481 · 2018-047F

PAYLOAD ACTIVE UNKNOWN

§ Identity

Operator
Country
US
Launch date
2018-05-22
Launch site
AFWTR
Launch vehicle
Mass (kg)
RCS (m²)

Purposes: comms

External: N2YO · Heavens-Above · Gunter

§ Orbital elements

Epoch: 2026-05-25T03:51:22.332096Z

Period
100.40 min
Inclination
86.3949°
Eccentricity
0.0002500
Mean motion
14.34217888 rev/d
Perigee alt
775.9 km
Apogee alt
779.5 km
Semi-major
7,155.8 km
B*
2.1677e-5
RAAN
98.0553°
Arg perigee
92.6539°
Mean anomaly
267.4943°
Rev number
41,917

§ Raw data

IRIDIUM 1101 43481U 18047F   26145.16067514  .00000080  00000+0  21677-4 0  99922 43481  86.3949  98.0553 0002500  92.6539 267.4943 14.34217888419175

JSON: /api/v1/satellites/43481 · /tle

For live sub-satellite position, see the globe view (requires WebGL).

§ Visibility from observer

Set your observer location to see the next 7 days of passes ≥ 10°. The values pass through the URL so the page stays shareable.

No JS? Fill the form by hand. The geolocation button needs JavaScript.